| time (UTC) | temp F | wind direction | speed MPH | gust MPH | rain 1hr in | rain 24hr in | rain mn in | humidity % | barometer mb |
| 20260506201829 | 93 | 292 | 7.0 | 9.0 | 0.00 | 0.00 | 0.00 | 44 | 1014.7 |
| 20260506201326 | 93 | 2 | 2.0 | 2.0 | 0.00 | 0.00 | 0.00 | 43 | 1014.7 |
| 20260506200823 | 92 | 8 | 3.0 | 5.0 | 0.00 | 0.00 | 0.00 | 42 | 1015.0 |
| 20260506200319 | 92 | 304 | 5.0 | 6.0 | 0.00 | 0.00 | 0.00 | 44 | 1015.0 |
| 20260506195815 | 92 | 234 | 2.0 | 2.0 | 0.00 | 0.00 | 0.00 | 47 | 1015.0 |
| 20260506195312 | 91 | 292 | 3.0 | 5.0 | 0.00 | 0.00 | 0.00 | 49 | 1015.0 |
| 20260506194809 | 92 | 313 | 4.0 | 5.0 | 0.00 | 0.00 | 0.00 | 48 | 1014.9 |
| 20260506194306 | 91 | 247 | 5.0 | 7.0 | 0.00 | 0.00 | 0.00 | 49 | 1015.0 |
| 20260506193804 | 91 | 306 | 4.0 | 5.0 | 0.00 | 0.00 | 0.00 | 49 | 1015.2 |
| 20260506193300 | 91 | 247 | 3.0 | 3.0 | 0.00 | 0.00 | 0.00 | 48 | 1015.2 |
| 20260506192756 | 91 | 294 | 1.0 | 2.0 | 0.00 | 0.00 | 0.00 | 47 | 1015.4 |
| 20260506192253 | 91 | 240 | 3.0 | 3.0 | 0.00 | 0.00 | 0.00 | 47 | 1015.3 |
| 20260506191750 | 91 | 254 | 6.0 | 7.0 | 0.00 | 0.00 | 0.00 | 45 | 1015.5 |
| 20260506191247 | 91 | 271 | 3.0 | 3.0 | 0.00 | 0.00 | 0.00 | 47 | 1015.7 |
| 20260506190744 | 91 | 255 | 5.0 | 7.0 | 0.00 | 0.00 | 0.00 | 48 | 1015.8 |
| 20260506190240 | 91 | 242 | 5.0 | 7.0 | 0.00 | 0.00 | 0.00 | 49 | 1015.8 |
| 20260506185737 | 91 | 212 | 3.0 | 3.0 | 0.00 | 0.00 | 0.00 | 49 | 1015.7 |
| 20260506185234 | 91 | 166 | 5.0 | 7.0 | 0.00 | 0.00 | 0.00 | 47 | 1016.0 |
| 20260506184731 | 90 | 302 | 2.0 | 2.0 | 0.00 | 0.00 | 0.00 | 49 | 1016.1 |
| 20260506184228 | 91 | 312 | 3.0 | 5.0 | 0.00 | 0.00 | 0.00 | 48 | 1015.9 |
| 20260506183725 | 90 | 155 | 1.0 | 2.0 | 0.00 | 0.00 | 0.00 | 48 | 1016.0 |
| 20260506183221 | 90 | 245 | 3.0 | 3.0 | 0.00 | 0.00 | 0.00 | 50 | 1015.9 |
| 20260506182718 | 90 | 317 | 4.0 | 5.0 | 0.00 | 0.00 | 0.00 | 50 | 1016.0 |
| 20260506182215 | 89 | 326 | 3.0 | 3.0 | 0.00 | 0.00 | 0.00 | 49 | 1016.1 |
| 20260506181713 | 89 | 299 | 5.0 | 7.0 | 0.00 | 0.00 | 0.00 | 52 | 1016.2 |
| 20260506181210 | 89 | 344 | 3.0 | 5.0 | 0.00 | 0.00 | 0.00 | 52 | 1016.4 |
| 20260506180707 | 89 | 269 | 5.0 | 7.0 | 0.00 | 0.00 | 0.00 | 50 | 1016.4 |
| 20260506180203 | 90 | 276 | 5.0 | 7.0 | 0.00 | 0.00 | 0.00 | 51 | 1016.5 |
| 20260506175659 | 89 | 1 | 1.0 | 1.0 | 0.00 | 0.00 | 0.00 | 53 | 1016.7 |
| 20260506175156 | 88 | 354 | 3.0 | 3.0 | 0.00 | 0.00 | 0.00 | 53 | 1016.6 |
| 20260506174649 | 90 | 280 | 3.0 | 5.0 | 0.00 | 0.00 | 0.00 | 52 | 1016.8 |
| 20260506174145 | 88 | 302 | 3.0 | 5.0 | 0.00 | 0.00 | 0.00 | 51 | 1016.8 |
| 20260506173643 | 88 | 272 | 7.0 | 7.0 | 0.00 | 0.00 | 0.00 | 52 | 1016.7 |
| 20260506173140 | 89 | 214 | 8.0 | 9.0 | 0.00 | 0.00 | 0.00 | 53 | 1016.9 |
| 20260506172637 | 88 | 336 | 5.0 | 6.0 | 0.00 | 0.00 | 0.00 | 53 | 1016.9 |
| 20260506172133 | 88 | 268 | 5.0 | 6.0 | 0.00 | 0.00 | 0.00 | 53 | 1016.8 |
| 20260506171631 | 87 | 312 | 3.0 | 3.0 | 0.00 | 0.00 | 0.00 | 53 | 1016.9 |
| 20260506171128 | 88 | 204 | 4.0 | 7.0 | 0.00 | 0.00 | 0.00 | 55 | 1016.9 |
| 20260506170620 | 88 | 317 | 6.0 | 7.0 | 0.00 | 0.00 | 0.00 | 56 | 1017.1 |
| 20260506170117 | 87 | 314 | 2.0 | 2.0 | 0.00 | 0.00 | 0.00 | 57 | 1017.0 |
| 20260506165615 | 87 | 233 | 4.0 | 6.0 | 0.00 | 0.00 | 0.00 | 58 | 1017.2 |
| 20260506165111 | 86 | 92 | 3.0 | 3.0 | 0.00 | 0.00 | 0.00 | 58 | 1017.1 |
| 20260506164608 | 86 | 303 | 4.0 | 6.0 | 0.00 | 0.00 | 0.00 | 58 | 1017.3 |
| 20260506164106 | 86 | 288 | 3.0 | 5.0 | 0.00 | 0.00 | 0.00 | 59 | 1017.4 |
| 20260506163601 | 86 | 287 | 5.0 | 7.0 | 0.00 | 0.00 | 0.00 | 59 | 1017.3 |
| 20260506163057 | 86 | 252 | 5.0 | 6.0 | 0.00 | 0.00 | 0.00 | 58 | 1017.3 |
| 20260506162553 | 86 | 166 | 5.0 | 6.0 | 0.00 | 0.00 | 0.00 | 58 | 1017.3 |
| 20260506162045 | 86 | 159 | 5.0 | 7.0 | 0.00 | 0.00 | 0.00 | 60 | 1017.3 |
| 20260506161543 | 86 | 310 | 3.0 | 3.0 | 0.00 | 0.00 | 0.00 | 60 | 1017.5 |
| 20260506161039 | 85 | 321 | 6.0 | 7.0 | 0.00 | 0.00 | 0.00 | 62 | 1017.5 |
| 20260506160537 | 85 | 264 | 7.0 | 8.0 | 0.00 | 0.00 | 0.00 | 61 | 1017.6 |
| 20260506160034 | 85 | 330 | 6.0 | 8.0 | 0.00 | 0.00 | 0.00 | 62 | 1017.7 |
| 20260506155533 | 84 | 259 | 3.0 | 5.0 | 0.00 | 0.00 | 0.00 | 62 | 1017.5 |
| 20260506153709 | 83 | 324 | 3.0 | 3.0 | 0.00 | 0.00 | 0.00 | 65 | 1017.5 |
| 20260506153207 | 83 | 127 | 4.0 | 5.0 | 0.00 | 0.00 | 0.00 | 65 | 1017.7 |
| 20260506152703 | 83 | 312 | 4.0 | 6.0 | 0.00 | 0.00 | 0.00 | 64 | 1017.8 |
| 20260506152201 | 83 | 198 | 2.0 | 2.0 | 0.00 | 0.00 | 0.00 | 66 | 1017.5 |
| 20260506151700 | 82 | 279 | 5.0 | 7.0 | 0.00 | 0.00 | 0.00 | 65 | 1017.7 |
| 20260506151156 | 82 | 48 | 1.0 | 2.0 | 0.00 | 0.00 | 0.00 | 66 | 1017.7 |
| 20260506150652 | 81 | 214 | 3.0 | 3.0 | 0.00 | 0.00 | 0.00 | 68 | 1017.6 |
| 20260506150150 | 81 | 224 | 6.0 | 8.0 | 0.00 | 0.00 | 0.00 | 67 | 1017.6 |
| 20260506145646 | 81 | 158 | 3.0 | 3.0 | 0.00 | 0.00 | 0.00 | 68 | 1017.7 |
| 20260506145143 | 81 | 260 | 5.0 | 6.0 | 0.00 | 0.00 | 0.00 | 68 | 1017.7 |
| 20260506144641 | 80 | 264 | 5.0 | 6.0 | 0.00 | 0.00 | 0.00 | 69 | 1017.6 |
| 20260506144137 | 80 | 207 | 6.0 | 8.0 | 0.00 | 0.00 | 0.00 | 68 | 1017.4 |
| 20260506143635 | 79 | 257 | 4.0 | 5.0 | 0.00 | 0.00 | 0.00 | 69 | 1017.3 |
| 20260506143133 | 79 | 213 | 5.0 | 6.0 | 0.00 | 0.00 | 0.00 | 70 | 1017.3 |
| 20260506142631 | 80 | 265 | 3.0 | 5.0 | 0.00 | 0.00 | 0.00 | 70 | 1017.4 |
| 20260506142129 | 78 | 312 | 2.0 | 3.0 | 0.00 | 0.00 | 0.00 | 71 | 1017.4 |
| 20260506141626 | 78 | 243 | 5.0 | 6.0 | 0.00 | 0.00 | 0.00 | 72 | 1017.3 |
| 20260506141125 | 78 | 199 | 3.0 | 3.0 | 0.00 | 0.00 | 0.00 | 73 | 1017.4 |
| 20260506140622 | 78 | 109 | 1.0 | 2.0 | 0.00 | 0.00 | 0.00 | 73 | 1017.4 |
| 20260506140119 | 77 | 212 | 6.0 | 7.0 | 0.00 | 0.00 | 0.00 | 74 | 1017.4 |
| 20260506135616 | 77 | 155 | 5.0 | 8.0 | 0.00 | 0.00 | 0.00 | 75 | 1017.5 |
| 20260506135112 | 77 | 226 | 3.0 | 5.0 | 0.00 | 0.00 | 0.00 | 76 | 1017.4 |
| 20260506134609 | 76 | 202 | 2.0 | 5.0 | 0.00 | 0.00 | 0.00 | 77 | 1017.5 |
| 20260506134104 | 76 | 121 | 6.0 | 7.0 | 0.00 | 0.00 | 0.00 | 77 | 1017.5 |
| 20260506133602 | 76 | 219 | 3.0 | 8.0 | 0.00 | 0.00 | 0.00 | 78 | 1017.4 |
| 20260506133059 | 75 | 282 | 4.0 | 6.0 | 0.00 | 0.00 | 0.00 | 79 | 1017.4 |
| 20260506132556 | 75 | 48 | 3.0 | 3.0 | 0.00 | 0.00 | 0.00 | 78 | 1017.6 |
| 20260506132053 | 74 | 153 | 3.0 | 3.0 | 0.00 | 0.00 | 0.00 | 79 | 1017.4 |
| 20260506131550 | 74 | 34 | 1.0 | 1.0 | 0.00 | 0.00 | 0.00 | 79 | 1017.3 |
| 20260506131046 | 74 | 241 | 3.0 | 3.0 | 0.00 | 0.00 | 0.00 | 80 | 1017.3 |
| 20260506130543 | 73 | 275 | 2.0 | 2.0 | 0.00 | 0.00 | 0.00 | 80 | 1017.4 |
| 20260506130041 | 72 | 233 | 3.0 | 6.0 | 0.00 | 0.00 | 0.00 | 81 | 1017.3 |
| 20260506125539 | 72 | 198 | 2.0 | 3.0 | 0.00 | 0.00 | 0.00 | 80 | 1017.4 |
| 20260506125037 | 71 | 33 | 1.0 | 1.0 | 0.00 | 0.00 | 0.00 | 81 | 1017.4 |
| 20260506124534 | 71 | 217 | 2.0 | 2.0 | 0.00 | 0.00 | 0.00 | 81 | 1017.3 |
| 20260506124032 | 70 | 50 | 0.0 | 0.0 | 0.00 | 0.00 | 0.00 | 83 | 1017.5 |
| 20260506123529 | 69 | 120 | 3.0 | 5.0 | 0.00 | 0.00 | 0.00 | 84 | 1017.3 |
| 20260506123027 | 68 | 317 | 1.0 | 1.0 | 0.00 | 0.00 | 0.00 | 86 | 1017.2 |
| 20260506122524 | 67 | 280 | 1.0 | 1.0 | 0.00 | 0.00 | 0.00 | 88 | 1017.1 |
| 20260506122022 | 65 | 241 | 2.0 | 2.0 | 0.00 | 0.00 | 0.00 | 92 | 1017.0 |
| 20260506121519 | 64 | 317 | 1.0 | 1.0 | 0.00 | 0.00 | 0.00 | 94 | 1017.0 |
| 20260506121015 | 63 | 12 | 0.0 | 0.0 | 0.00 | 0.00 | 0.00 | 96 | 1016.8 |
| 20260506120514 | 62 | 23 | 0.0 | 0.0 | 0.00 | 0.00 | 0.00 | 96 | 1016.8 |
| 20260506120011 | 61 | 11 | 0.0 | 0.0 | 0.00 | 0.00 | 0.00 | 97 | 1016.6 |
| 20260506115508 | 61 | 11 | 0.0 | 0.0 | 0.00 | 0.00 | 0.00 | 97 | 1016.6 |
| 20260506115007 | 60 | 17 | 0.0 | 0.0 | 0.00 | 0.00 | 0.00 | 97 | 1016.9 |
| 20260506114504 | 60 | 5 | 0.0 | 0.0 | 0.00 | 0.00 | 0.00 | 97 | 1016.7 |
| 20260506114002 | 59 | 16 | 0.0 | 0.0 | 0.00 | 0.00 | 0.00 | 97 | 1016.5 |
| 20260506113459 | 59 | 16 | 0.0 | 0.0 | 0.00 | 0.00 | 0.00 | 97 | 1016.7 |
| 20260506112956 | 59 | 11 | 0.0 | 0.0 | 0.00 | 0.00 | 0.00 | 97 | 1016.7 |
| 20260506112453 | 59 | 16 | 0.0 | 0.0 | 0.00 | 0.00 | 0.00 | 97 | 1016.5 |
| 20260506111950 | 58 | 15 | 0.0 | 0.0 | 0.00 | 0.00 | 0.00 | 97 | 1016.5 |
| 20260506111449 | 58 | 16 | 0.0 | 0.0 | 0.00 | 0.00 | 0.00 | 97 | 1016.6 |
| 20260506110945 | 58 | 16 | 0.0 | 0.0 | 0.00 | 0.00 | 0.00 | 97 | 1016.7 |
| 20260506110443 | 58 | 17 | 0.0 | 0.0 | 0.00 | 0.00 | 0.00 | 97 | 1016.4 |
| 20260506105939 | 58 | 20 | 0.0 | 0.0 | 0.00 | 0.00 | 0.00 | 97 | 1016.4 |
| 20260506105436 | 58 | 20 | 0.0 | 0.0 | 0.00 | 0.00 | 0.00 | 97 | 1016.6 |
| 20260506104933 | 58 | 24 | 0.0 | 0.0 | 0.00 | 0.00 | 0.00 | 97 | 1016.3 |
| 20260506104431 | 58 | 19 | 0.0 | 0.0 | 0.00 | 0.00 | 0.00 | 97 | 1016.1 |
| 20260506103930 | 58 | 6 | 0.0 | 0.0 | 0.00 | 0.00 | 0.00 | 97 | 1016.2 |
| 20260506103427 | 58 | 6 | 0.0 | 0.0 | 0.00 | 0.00 | 0.00 | 97 | 1016.1 |
| 20260506102923 | 58 | 7 | 0.0 | 0.0 | 0.00 | 0.00 | 0.00 | 97 | 1016.1 |
| 20260506102421 | 58 | 12 | 0.0 | 0.0 | 0.00 | 0.00 | 0.00 | 97 | 1016.1 |
| 20260506101918 | 58 | 12 | 0.0 | 0.0 | 0.00 | 0.00 | 0.00 | 97 | 1016.0 |
| 20260506101414 | 58 | 4 | 0.0 | 0.0 | 0.00 | 0.00 | 0.00 | 97 | 1016.3 |
| 20260506100912 | 58 | 3 | 0.0 | 0.0 | 0.00 | 0.00 | 0.00 | 96 | 1016.2 |
| 20260506100410 | 58 | 4 | 0.0 | 0.0 | 0.00 | 0.00 | 0.00 | 96 | 1016.2 |
| 20260506095908 | 59 | 6 | 0.0 | 0.0 | 0.00 | 0.00 | 0.00 | 96 | 1016.3 |
| 20260506095406 | 59 | 23 | 0.0 | 0.0 | 0.00 | 0.00 | 0.00 | 96 | 1016.0 |
| 20260506094902 | 59 | 24 | 0.0 | 0.0 | 0.00 | 0.00 | 0.00 | 96 | 1016.2 |
| 20260506094401 | 59 | 23 | 0.0 | 0.0 | 0.00 | 0.00 | 0.00 | 96 | 1016.3 |
| 20260506093858 | 59 | 23 | 0.0 | 0.0 | 0.00 | 0.00 | 0.00 | 96 | 1016.3 |
| 20260506093355 | 59 | 34 | 0.0 | 0.0 | 0.00 | 0.00 | 0.00 | 96 | 1016.1 |
| 20260506092853 | 59 | 26 | 0.0 | 1.0 | 0.00 | 0.00 | 0.00 | 96 | 1016.2 |
| 20260506092351 | 59 | 11 | 0.0 | 0.0 | 0.00 | 0.00 | 0.00 | 96 | 1016.2 |
| 20260506091847 | 59 | 359 | 0.0 | 0.0 | 0.00 | 0.00 | 0.00 | 96 | 1016.5 |
| 20260506091345 | 59 | 345 | 1.0 | 1.0 | 0.00 | 0.00 | 0.00 | 96 | 1016.4 |
| 20260506090842 | 59 | 346 | 1.0 | 1.0 | 0.00 | 0.00 | 0.00 | 96 | 1016.2 |
| 20260506090340 | 59 | 5 | 0.0 | 0.0 | 0.00 | 0.00 | 0.00 | 96 | 1015.9 |
| 20260506085836 | 59 | 16 | 0.0 | 0.0 | 0.00 | 0.00 | 0.00 | 96 | 1015.8 |
| 20260506085332 | 59 | 26 | 0.0 | 1.0 | 0.00 | 0.00 | 0.00 | 96 | 1015.8 |
| 20260506084829 | 59 | 27 | 0.0 | 0.0 | 0.00 | 0.00 | 0.00 | 95 | 1016.0 |
| 20260506084326 | 59 | 15 | 0.0 | 0.0 | 0.00 | 0.00 | 0.00 | 95 | 1015.6 |
| 20260506083823 | 59 | 16 | 0.0 | 0.0 | 0.00 | 0.00 | 0.00 | 95 | 1015.9 |
| 20260506083320 | 59 | 7 | 0.0 | 0.0 | 0.00 | 0.00 | 0.00 | 95 | 1015.9 |
| 20260506082818 | 59 | 7 | 0.0 | 0.0 | 0.00 | 0.00 | 0.00 | 95 | 1015.9 |
| 20260506082314 | 59 | 19 | 0.0 | 0.0 | 0.00 | 0.00 | 0.00 | 95 | 1016.0 |
| 20260506081810 | 60 | 24 | 0.0 | 0.0 | 0.00 | 0.00 | 0.00 | 95 | 1016.0 |
| 20260506081308 | 60 | 13 | 0.0 | 0.0 | 0.00 | 0.00 | 0.00 | 94 | 1016.1 |
| 20260506080806 | 60 | 4 | 0.0 | 0.0 | 0.00 | 0.00 | 0.00 | 94 | 1016.2 |
| 20260506080302 | 60 | 13 | 0.0 | 0.0 | 0.00 | 0.00 | 0.00 | 94 | 1015.9 |
| 20260506073246 | 61 | 349 | 1.0 | 1.0 | 0.00 | 0.00 | 0.00 | 93 | 1015.8 |
| 20260506072743 | 61 | 1 | 1.0 | 1.0 | 0.00 | 0.00 | 0.00 | 93 | 1015.5 |
| 20260506072240 | 61 | 12 | 0.0 | 0.0 | 0.00 | 0.00 | 0.00 | 93 | 1015.7 |
| 20260506071738 | 60 | 51 | 1.0 | 1.0 | 0.00 | 0.00 | 0.00 | 94 | 1015.6 |
| 20260506071236 | 60 | 14 | 0.0 | 0.0 | 0.00 | 0.00 | 0.00 | 94 | 1015.3 |
| 20260506070732 | 60 | 17 | 0.0 | 0.0 | 0.00 | 0.00 | 0.00 | 94 | 1015.7 |
| 20260506070229 | 60 | 20 | 0.0 | 0.0 | 0.00 | 0.00 | 0.00 | 94 | 1015.9 |
| 20260506062207 | 60 | 34 | 0.0 | 0.0 | 0.00 | 0.00 | 0.00 | 93 | 1016.2 |
| 20260506061702 | 60 | 12 | 0.0 | 0.0 | 0.00 | 0.00 | 0.00 | 93 | 1016.5 |
| 20260506061200 | 60 | 5 | 0.0 | 0.0 | 0.00 | 0.00 | 0.00 | 93 | 1016.7 |
| 20260506060659 | 60 | 5 | 0.0 | 1.0 | 0.00 | 0.00 | 0.00 | 93 | 1016.7 |
| 20260506060155 | 60 | 12 | 0.0 | 0.0 | 0.00 | 0.00 | 0.00 | 92 | 1016.4 |
| 20260506051127 | 61 | 12 | 0.0 | 0.0 | 0.00 | 0.00 | 0.00 | 91 | 1017.2 |
| 20260506050625 | 61 | 3 | 0.0 | 0.0 | 0.00 | 0.00 | 0.00 | 91 | 1017.0 |
| 20260506050122 | 61 | 4 | 0.0 | 0.0 | 0.00 | 0.00 | 0.00 | 91 | 1017.2 |
| 20260506045115 | 61 | 15 | 0.0 | 0.0 | 0.00 | 0.00 | 0.00 | 90 | 1017.0 |
| 20260506044613 | 62 | 20 | 0.0 | 0.0 | 0.00 | 0.00 | 0.00 | 89 | 1016.9 |
| 20260506044110 | 62 | 25 | 0.0 | 1.0 | 0.00 | 0.00 | 0.00 | 89 | 1017.2 |
| 20260506043607 | 62 | 24 | 0.0 | 0.0 | 0.00 | 0.00 | 0.00 | 89 | 1017.1 |
| 20260506043105 | 62 | 15 | 0.0 | 0.0 | 0.00 | 0.00 | 0.00 | 88 | 1017.1 |
| 20260506042604 | 62 | 20 | 0.0 | 0.0 | 0.00 | 0.00 | 0.00 | 88 | 1017.1 |
| 20260506042102 | 62 | 23 | 0.0 | 0.0 | 0.00 | 0.00 | 0.00 | 88 | 1017.1 |
| 20260506041600 | 62 | 13 | 0.0 | 0.0 | 0.00 | 0.00 | 0.00 | 87 | 1017.3 |
| 20260506041056 | 63 | 8 | 0.0 | 0.0 | 0.00 | 0.00 | 0.00 | 87 | 1017.3 |
| 20260506040554 | 63 | 5 | 0.0 | 0.0 | 0.00 | 0.00 | 0.00 | 87 | 1017.2 |
| 20260506040050 | 63 | 15 | 0.0 | 0.0 | 0.00 | 0.00 | 0.00 | 86 | 1017.1 |
| 20260506035547 | 63 | 15 | 0.0 | 0.0 | 0.00 | 0.00 | 0.00 | 85 | 1017.4 |
| 20260506035044 | 64 | 17 | 0.0 | 0.0 | 0.00 | 0.00 | 0.00 | 84 | 1017.4 |
| 20260506034542 | 64 | 12 | 0.0 | 0.0 | 0.00 | 0.00 | 0.00 | 83 | 1017.6 |
| 20260506034038 | 64 | 17 | 0.0 | 0.0 | 0.00 | 0.00 | 0.00 | 83 | 1017.3 |
| 20260506033536 | 65 | 6 | 0.0 | 0.0 | 0.00 | 0.00 | 0.00 | 81 | 1017.3 |
| 20260506033032 | 65 | 5 | 0.0 | 0.0 | 0.00 | 0.00 | 0.00 | 80 | 1017.5 |
| 20260506032530 | 66 | 5 | 0.0 | 0.0 | 0.00 | 0.00 | 0.00 | 79 | 1017.3 |
| 20260506032026 | 66 | 22 | 1.0 | 1.0 | 0.00 | 0.00 | 0.00 | 79 | 1017.0 |
| 20260506031524 | 66 | 25 | 0.0 | 1.0 | 0.00 | 0.00 | 0.00 | 78 | 1017.3 |
| 20260506031021 | 66 | 35 | 1.0 | 1.0 | 0.00 | 0.00 | 0.00 | 77 | 1016.9 |
| 20260506030519 | 67 | 21 | 0.0 | 0.0 | 0.00 | 0.00 | 0.00 | 77 | 1016.9 |
| 20260506030016 | 67 | 35 | 0.0 | 0.0 | 0.00 | 0.00 | 0.00 | 76 | 1016.9 |
| 20260506025513 | 67 | 9 | 1.0 | 1.0 | 0.00 | 0.00 | 0.00 | 76 | 1016.9 |
| 20260506025009 | 68 | 13 | 0.0 | 0.0 | 0.00 | 0.00 | 0.00 | 76 | 1017.0 |
| 20260506024507 | 67 | 0 | 0.0 | 1.0 | 0.00 | 0.00 | 0.00 | 75 | 1017.1 |
| 20260506024002 | 67 | 41 | 1.0 | 1.0 | 0.00 | 0.00 | 0.00 | 77 | 1016.8 |
| 20260506023459 | 67 | 35 | 1.0 | 1.0 | 0.00 | 0.00 | 0.00 | 76 | 1016.7 |
| 20260506022955 | 67 | 48 | 1.0 | 1.0 | 0.00 | 0.00 | 0.00 | 75 | 1016.9 |
| 20260506022453 | 67 | 55 | 1.0 | 1.0 | 0.00 | 0.00 | 0.00 | 75 | 1017.0 |
| 20260506021951 | 68 | 37 | 1.0 | 1.0 | 0.00 | 0.00 | 0.00 | 74 | 1016.9 |
| 20260506021448 | 68 | 19 | 0.0 | 0.0 | 0.00 | 0.00 | 0.00 | 73 | 1016.6 |
| 20260506020945 | 68 | 28 | 0.0 | 1.0 | 0.00 | 0.00 | 0.00 | 73 | 1016.9 |
| 20260506020443 | 68 | 21 | 0.0 | 0.0 | 0.00 | 0.00 | 0.00 | 72 | 1016.6 |
| 20260506015940 | 69 | 34 | 0.0 | 1.0 | 0.00 | 0.00 | 0.00 | 71 | 1016.5 |
| 20260506015437 | 69 | 64 | 1.0 | 2.0 | 0.00 | 0.00 | 0.00 | 71 | 1016.3 |
| 20260506014934 | 68 | 39 | 0.0 | 1.0 | 0.00 | 0.00 | 0.00 | 71 | 1016.5 |
| 20260506014431 | 69 | 34 | 0.0 | 1.0 | 0.00 | 0.00 | 0.00 | 71 | 1016.2 |
| 20260506013927 | 69 | 36 | 0.0 | 1.0 | 0.00 | 0.00 | 0.00 | 70 | 1016.2 |
| 20260506013426 | 69 | 24 | 0.0 | 0.0 | 0.00 | 0.00 | 0.00 | 70 | 1016.1 |
| 20260506012921 | 70 | 9 | 0.0 | 0.0 | 0.00 | 0.00 | 0.00 | 69 | 1016.2 |
| 20260506012418 | 70 | 30 | 0.0 | 1.0 | 0.00 | 0.00 | 0.00 | 68 | 1016.1 |
| 20260506011915 | 70 | 14 | 0.0 | 0.0 | 0.00 | 0.00 | 0.00 | 67 | 1016.0 |
| 20260506011412 | 71 | 345 | 0.0 | 0.0 | 0.00 | 0.00 | 0.00 | 67 | 1016.0 |
| 20260506010909 | 71 | 27 | 0.0 | 0.0 | 0.00 | 0.00 | 0.00 | 66 | 1016.1 |
| 20260506010408 | 72 | 35 | 0.0 | 1.0 | 0.00 | 0.00 | 0.00 | 65 | 1015.8 |
| 20260506005904 | 72 | 22 | 0.0 | 0.0 | 0.00 | 0.00 | 0.00 | 64 | 1015.9 |
| 20260506005402 | 73 | 49 | 1.0 | 1.0 | 0.00 | 0.00 | 0.00 | 64 | 1015.9 |
| 20260506004857 | 73 | 40 | 0.0 | 1.0 | 0.00 | 0.00 | 0.00 | 63 | 1016.0 |
| 20260506004355 | 73 | 138 | 2.0 | 2.0 | 0.00 | 0.00 | 0.00 | 62 | 1016.0 |
| 20260506003851 | 73 | 20 | 2.0 | 2.0 | 0.00 | 0.00 | 0.00 | 62 | 1015.6 |
| 20260506003347 | 74 | 43 | 1.0 | 1.0 | 0.00 | 0.00 | 0.00 | 61 | 1015.6 |
| 20260506002844 | 74 | 31 | 0.0 | 1.0 | 0.00 | 0.00 | 0.00 | 61 | 1015.7 |
| 20260506002340 | 74 | 53 | 1.0 | 2.0 | 0.00 | 0.00 | 0.00 | 61 | 1015.4 |
| 20260506001836 | 74 | 132 | 2.0 | 2.0 | 0.00 | 0.00 | 0.00 | 60 | 1015.4 |
| 20260506001333 | 75 | 75 | 3.0 | 5.0 | 0.00 | 0.00 | 0.00 | 60 | 1015.4 |
| 20260506000830 | 75 | 112 | 2.0 | 2.0 | 0.00 | 0.00 | 0.00 | 60 | 1015.5 |
| 20260506000329 | 75 | 74 | 1.0 | 2.0 | 0.00 | 0.00 | 0.00 | 60 | 1015.5 |
| 20260505235824 | 76 | 27 | 1.0 | 1.0 | 0.00 | 0.00 | 0.00 | 59 | 1015.3 |
| 20260505235322 | 76 | 75 | 1.0 | 1.0 | 0.00 | 0.00 | 0.00 | 58 | 1015.2 |
| 20260505234818 | 76 | 89 | 3.0 | 6.0 | 0.00 | 0.00 | 0.00 | 58 | 1015.0 |
| 20260505234317 | 76 | 50 | 1.0 | 1.0 | 0.00 | 0.00 | 0.00 | 59 | 1015.1 |
| 20260505233813 | 77 | 43 | 2.0 | 3.0 | 0.00 | 0.00 | 0.00 | 58 | 1015.0 |
| 20260505233311 | 77 | 109 | 3.0 | 5.0 | 0.00 | 0.00 | 0.00 | 57 | 1015.1 |
| 20260505232808 | 77 | 168 | 2.0 | 3.0 | 0.00 | 0.00 | 0.00 | 57 | 1015.1 |
| 20260505232306 | 78 | 88 | 2.0 | 2.0 | 0.00 | 0.00 | 0.00 | 57 | 1015.1 |
| 20260505231802 | 78 | 90 | 4.0 | 5.0 | 0.00 | 0.00 | 0.00 | 57 | 1015.0 |
| 20260505231300 | 78 | 64 | 1.0 | 1.0 | 0.00 | 0.00 | 0.00 | 57 | 1015.0 |
| 20260505230758 | 78 | 61 | 3.0 | 3.0 | 0.00 | 0.00 | 0.00 | 56 | 1015.0 |
| 20260505230255 | 78 | 77 | 3.0 | 5.0 | 0.00 | 0.00 | 0.00 | 56 | 1014.7 |
| 20260505225752 | 78 | 67 | 3.0 | 5.0 | 0.00 | 0.00 | 0.00 | 56 | 1014.7 |
| 20260505225249 | 79 | 77 | 3.0 | 5.0 | 0.00 | 0.00 | 0.00 | 55 | 1014.9 |
| 20260505224743 | 79 | 87 | 4.0 | 6.0 | 0.00 | 0.00 | 0.00 | 54 | 1014.6 |
| 20260505224242 | 79 | 79 | 4.0 | 6.0 | 0.00 | 0.00 | 0.00 | 54 | 1014.7 |
| 20260505223739 | 79 | 136 | 2.0 | 3.0 | 0.00 | 0.00 | 0.00 | 54 | 1014.7 |
| 20260505223235 | 80 | 40 | 4.0 | 6.0 | 0.00 | 0.00 | 0.00 | 54 | 1014.7 |
| 20260505222731 | 80 | 62 | 4.0 | 5.0 | 0.00 | 0.00 | 0.00 | 53 | 1014.7 |
| 20260505222227 | 80 | 109 | 7.0 | 9.0 | 0.00 | 0.00 | 0.00 | 53 | 1014.8 |
| 20260505221725 | 81 | 28 | 4.0 | 6.0 | 0.00 | 0.00 | 0.00 | 53 | 1014.6 |
| 20260505221221 | 82 | 61 | 5.0 | 6.0 | 0.00 | 0.00 | 0.00 | 53 | 1014.5 |
| 20260505220718 | 82 | 85 | 3.0 | 5.0 | 0.00 | 0.00 | 0.00 | 52 | 1014.5 |
| 20260505220216 | 82 | 130 | 9.0 | 11.0 | 0.00 | 0.00 | 0.00 | 52 | 1014.6 |
| 20260505215714 | 83 | 93 | 3.0 | 3.0 | 0.00 | 0.00 | 0.00 | 52 | 1014.4 |
| 20260505215211 | 83 | 96 | 3.0 | 6.0 | 0.00 | 0.00 | 0.00 | 51 | 1014.6 |
| 20260505214709 | 83 | 109 | 1.0 | 2.0 | 0.00 | 0.00 | 0.00 | 50 | 1014.4 |
| 20260505214206 | 84 | 82 | 2.0 | 2.0 | 0.00 | 0.00 | 0.00 | 50 | 1014.5 |
| 20260505213704 | 86 | 110 | 4.0 | 6.0 | 0.00 | 0.00 | 0.00 | 44 | 1014.7 |
| 20260505213201 | 85 | 36 | 1.0 | 2.0 | 0.00 | 0.00 | 0.00 | 42 | 1014.4 |
| 20260505212656 | 84 | 49 | 1.0 | 1.0 | 0.00 | 0.00 | 0.00 | 44 | 1014.5 |
| 20260505212154 | 84 | 334 | 2.0 | 2.0 | 0.00 | 0.00 | 0.00 | 44 | 1014.4 |
| 20260505211651 | 85 | 155 | 3.0 | 3.0 | 0.00 | 0.00 | 0.00 | 43 | 1014.5 |
| 20260505211148 | 87 | 193 | 4.0 | 7.0 | 0.00 | 0.00 | 0.00 | 42 | 1014.4 |
| 20260505210644 | 86 | 4 | 1.0 | 1.0 | 0.00 | 0.00 | 0.00 | 42 | 1014.5 |
| 20260505210141 | 85 | 38 | 2.0 | 2.0 | 0.00 | 0.00 | 0.00 | 43 | 1014.7 |
| 20260505205639 | 85 | 24 | 1.0 | 1.0 | 0.00 | 0.00 | 0.00 | 43 | 1014.8 |
| 20260505205137 | 86 | 143 | 3.0 | 3.0 | 0.00 | 0.00 | 0.00 | 42 | 1014.6 |
| 20260505204633 | 87 | 116 | 1.0 | 2.0 | 0.00 | 0.00 | 0.00 | 42 | 1014.9 |
| 20260505204131 | 86 | 353 | 0.0 | 0.0 | 0.00 | 0.00 | 0.00 | 43 | 1014.9 |
| 20260505203628 | 87 | 77 | 3.0 | 3.0 | 0.00 | 0.00 | 0.00 | 41 | 1014.9 |
| 20260505203125 | 86 | 42 | 1.0 | 1.0 | 0.00 | 0.00 | 0.00 | 42 | 1015.0 |
| 20260505202620 | 85 | 46 | 2.0 | 3.0 | 0.00 | 0.00 | 0.00 | 43 | 1014.9 |